Weather History for FAGG - January, 2013

Change the Weather History Date:

Wednesday, January 23, 2013

  Actual Average Record
Temperature  
Mean Temperature 70 °F -  
Max Temperature 76 °F 74 °F 79 °F (2015)
Min Temperature 64 °F 59 °F 66 °F (2015)
Cooling Degree Days 5    
Growing Degree Days 20 (Base 50)    
Moisture  
Dew Point 63 °F    
Average Humidity 79    
Maximum Humidity 94    
Minimum Humidity 55    
Precipitation  
Precipitation 0.00 in - - ()
Sea Level Pressure  
Sea Level Pressure 29.95 in    
Wind  
Wind Speed 3 mph ()    
Max Wind Speed 13 mph    
Max Gust Speed -    
Visibility 6.6 miles    
Events Rain    
Averages and records for this station are not official NWS values.
T = Trace of Precipitation, MM = Missing Value Source: Averaged Metar Reports

Daily Weather History Graph

Daily Weather History Graph

Search for Another Location

Airport or City:

Trip Planner

Search our weather history database for the weather conditions in past years. The results will help you decide how hot, cold, wet, or windy it might be!

Date:

Astronomy

Jan. 23, 2013 Rise Set
Actual Time 5:42 AM SAST 7:41 PM SAST
Civil Twilight 5:15 AM SAST 8:09 PM SAST
Nautical Twilight 4:41 AM SAST 8:42 PM SAST
Astronomical Twilight 4:05 AM SAST 9:18 PM SAST
Moon 4:52 PM SAST 2:24 AM SAST
Length of Visible Light 14h 54m
Length of Day
13h 58m
Waxing Gibbous, 87% of the Moon is Illuminated
Jan 23
Waxing Gibbous
Jan 27
Full
Feb 3
Last Quarter
Feb 10
New
Feb 17
First Quarter

Hourly Weather History & Observations

Time (SAST) Temp. Dew Point Humidity Pressure Visibility Wind Dir Wind Speed Gust Speed Precip Events Conditions
12:00 AM 64.4 °F 62.6 °F 94% 29.98 in 6.2 mi NNW 2.3 mph - N/A   Scattered Clouds
1:00 AM 66.2 °F 62.6 °F 88% 29.98 in 6.2 mi NNW 3.5 mph - N/A   Overcast
2:00 AM 67 °F 64 °F 87% 29.97 in 6 mi North 1.2 mph - -  
2:00 AM 66.2 °F 64.4 °F 94% 29.98 in 5.6 mi Variable 1.2 mph - N/A   Overcast
3:00 AM 66.2 °F 64.4 °F 94% 29.98 in 4.3 mi Variable 2.3 mph - N/A   Overcast
5:00 AM 66 °F 64 °F 90% 29.99 in 3 mi 1.2 mph - - Rain Light Drizzle
5:00 AM 66.2 °F 64.4 °F 94% 29.98 in 3.1 mi Variable 2.3 mph - N/A   Light Drizzle
6:00 AM 66.2 °F 62.6 °F 88% 29.95 in 4.3 mi Calm Calm - N/A   Mostly Cloudy
7:00 AM 66.2 °F 64.4 °F 94% 29.98 in 5.0 mi SW 3.5 mph - N/A   Mostly Cloudy
8:00 AM 67 °F 64 °F 85% 29.99 in 6 mi South 2.3 mph - -   Partly Cloudy
8:00 AM 68.0 °F 64.4 °F 88% 29.98 in 6.2 mi Variable 2.3 mph - N/A   Mostly Cloudy
9:00 AM 68.0 °F 62.6 °F 83% 29.98 in 6.2 mi SE 3.5 mph - N/A   Mostly Cloudy
10:00 AM 69.8 °F 62.6 °F 78% 29.95 in 6.2 mi South 4.6 mph - N/A   Mostly Cloudy
11:00 AM 71 °F 63 °F 70% 29.96 in 12 mi SE 5.8 mph - -   Mostly Cloudy
11:00 AM 71.6 °F 62.6 °F 73% 29.95 in 6.2 mi SE 5.8 mph - N/A   Mostly Cloudy
12:00 PM 73.4 °F 64.4 °F 73% 29.95 in 6.2 mi East 4.6 mph - N/A   Mostly Cloudy
1:00 PM 75.2 °F 62.6 °F 65% 29.92 in 6.2 mi South 5.8 mph - N/A   Mostly Cloudy
2:00 PM 75 °F 62 °F 55% 29.94 in 12 mi SSE 9.2 mph - -   Mostly Cloudy
2:00 PM 75.2 °F 62.6 °F 65% 29.92 in 6.2 mi SSE 10.4 mph - N/A   Mostly Cloudy
3:00 PM 73.4 °F 62.6 °F 69% 29.92 in 6.2 mi SSE 12.7 mph - N/A   Mostly Cloudy
4:00 PM 71.6 °F 62.6 °F 73% 29.92 in 6.2 mi SSE 6.9 mph - N/A   Mostly Cloudy
5:00 PM 72 °F 63 °F 66% 29.93 in 12 mi ESE 6.9 mph - -   Mostly Cloudy
5:00 PM 71.6 °F 62.6 °F 73% 29.92 in 6.2 mi ESE 5.8 mph - N/A   Mostly Cloudy
6:00 PM 71.6 °F 62.6 °F 73% 29.92 in 6.2 mi SE 8.1 mph - N/A   Mostly Cloudy
7:00 PM 69.8 °F 62.6 °F 78% 29.92 in 6.2 mi SSE 5.8 mph - N/A   Mostly Cloudy
8:00 PM 68 °F 62 °F 74% 29.96 in 12 mi SE 4.6 mph - -   Mostly Cloudy
8:00 PM 68.0 °F 60.8 °F 78% 29.95 in 6.2 mi SE 4.6 mph - N/A   Mostly Cloudy
9:00 PM 68.0 °F 60.8 °F 78% 29.95 in 6.2 mi SE 3.5 mph - N/A   Mostly Cloudy
10:00 PM 68.0 °F 60.8 °F 78% 29.95 in 6.2 mi East 3.5 mph - N/A   Overcast
11:00 PM 68.0 °F 62.6 °F 83% 29.95 in 6.2 mi Variable 1.2 mph - N/A   Overcast